2023-025E (55694 NORAD) Tracking and Keplerian Element Data

This shows tracking and keplerian element data for the satellite.

Feedback or suggestion? Click here.




ElementValue
Catalog55694
Name2023-025E
Epoch Orbit443
Epoch Day84.93508805
Epoch Year2023
RAAN156.4625
Inclination97.267
Eccentricity0.0154463
Argument of Perigee68.378
Mean Anonmoly293.3439
Mean Motion14.89393164
Decay Rate0.00053489
L11 55694U 23025E 23084.93508805 .00053489 00000+0 44742-2 0 9997
L22 55694 97.2670 156.4625 0154463 68.3780 293.3439 14.89393164 4438



Live tracking and technical data element details for 2023-025E (NORAD 55694). 2023-025E can be tracked NOW for your location showing map with azimuth and elevation plus other details from your city location.







IsCatalogInMostPopularTable: catalog: 55694, numindb: 3
Update: records affected: 1



GetName: 55694 2023-025E

Hit Count: updated at: Tue, 28 Mar 2023 02:58:47 GMT